30.06.2024;16:00;2
30.06.2024;15:00;2
30.06.2024;14:00;2
30.06.2024;13:00;2
30.06.2024;12:00;3
30.06.2024;11:00;3
30.06.2024;10:00;5
30.06.2024;09:00;6
30.06.2024;08:00;10
30.06.2024;07:00;9
30.06.2024;06:00;2
30.06.2024;05:00;2
30.06.2024;04:00;4
30.06.2024;03:00;11
30.06.2024;02:00;20
30.06.2024;01:00;26
30.06.2024;00:00;19
29.06.2024;23:00;21
29.06.2024;22:00;32
29.06.2024;21:00;20
29.06.2024;20:00;9
29.06.2024;19:00;12
29.06.2024;18:00;8
29.06.2024;17:00;8
29.06.2024;16:00;6
29.06.2024;15:00;8
29.06.2024;14:00;7
29.06.2024;13:00;8
29.06.2024;12:00;11
29.06.2024;11:00;11
29.06.2024;10:00;11
29.06.2024;09:00;12
29.06.2024;08:00;8
29.06.2024;07:00;8
29.06.2024;06:00;9
29.06.2024;05:00;18
29.06.2024;04:00;20
29.06.2024;03:00;20
29.06.2024;02:00;18
29.06.2024;01:00;29
29.06.2024;00:00;21
28.06.2024;23:00;33
28.06.2024;22:00;44
28.06.2024;21:00;19
28.06.2024;20:00;7
28.06.2024;19:00;7
28.06.2024;18:00;6
28.06.2024;17:00;7
